Regional Weather Roundup
Issued by NWS Pendleton, OR

Home | Current Version | Previous Version | Text Only | Print | Product List | Glossary On
Versions: 1 2 3 4 5 6 7 8 9 10 11 12 13 14 15 16 17 18 19 20 21 22 23 24 25 26 27 28 29 30 31 32 33 34 35 36 37 38 39 40 41 42 43 44 45 46 47 48 49 50
468
ASUS46 KPDT 230025
RWRPDT
PENDLETON REGIONAL WEATHER ROUNDUP
NATIONAL WEATHER SERVICE PENDLETON OREGON
500 PM PDT WED MAR 22 2017

NOTE: FAIR INDICATES FEW OR NO CLOUDS BELOW 12,000 FEET WITH NO
SIGNIFICANT WEATHER AND/OR OBSTRUCTIONS TO VISIBILITY.

# INDICATES UNOFFICIAL STATION AND DATA

WAZ520-230110-
EAST SLOPES OF WASHINGTON CASCADES

CITY            SKY/WX      TMP DP  RH  WIND    PRES   REMARKS
#CLE ELUM HS    N/A         44  42  93  CALM    29.83
#CLE ELUM LAKE  N/A         39  37  92  CALM    29.89F
#GLENWOOD       N/A         45  38  76  S7      29.95S
#NELSON 3SW     N/A         37  36  96  CALM    30.14S
#NILE           N/A         51  30  44  SW2     29.14S
#TEANAWAY 4NE   N/A         44  40  86  W1      N/A
#TROUT LAKE 1NE N/A         46  39  76  CALM    29.97
#TROUT LAKE 1E  N/A         46  38  73  CALM    29.96
$$

WAZ521-230110-
SIMCOE HIGHLANDS

CITY            SKY/WX      TMP DP  RH  WIND    PRES   REMARKS
#BICKLETON HS   N/A         47  36  65  SW18    29.95S WCI 40
#CENTERVILLE 1SWN/A         47  38  71  W22     29.93  WCI 39
#GOLDENDALE 1NE N/A         50  25  37  SW9     N/A
#GOLDENDALE 4W  N/A         49  16  26  W18     29.96S WCI 43
#GOODNOE HILLS  N/A         53  35  50  W23     29.83S
#LYLE 6NE       N/A         48  42  80  S13     29.94  WCI 43
#PITT 4SE       N/A         43  38  82  W18G26  29.99S WCI 35
$$

WAZ026-230110-
KITTITAS VALLEY

CITY            SKY/WX      TMP DP  RH  WIND    PRES   REMARKS
ELLENSBURG AP   PTCLDY      53  39  59  NW20G26 29.84S
#ELLENSBURG CWU N/A         52  41  66  NW15    29.80
#ELLENSBURG 3NE N/A         50  41  71  N12     27.93R
#ELLENSBURG 1E  N/A         54  N/A N/A SW1     N/A
#ELLENSBURG 13S N/A         55  33  43  CALM    N/A
#KITTITAS 4N    N/A         51  40  66  W10     29.86F
#KITTITAS 3S    N/A         53  42  66  SW7     29.84S
#THORP 6N       N/A         44  39  82  N10     29.91S
$$

WAZ027-230110-
YAKIMA VALLEY

CITY            SKY/WX      TMP DP  RH  WIND    PRES   REMARKS
SUNNYSIDE AP    PTCLDY      57  36  45  W15G24  29.88S
YAKIMA AIRPORT  PTCLDY      59  35  40  SW16G28 29.86
6HR MIN TEMP:   49; 6HR MAX TEMP:   61;

YAKIMA-VAGABOND MOCLDY      57  33  40  W13     29.83
6HR MIN TEMP:   45; 6HR MAX TEMP:   58;

#DONALD 2NE     N/A         56  15  20  SW9     28.72S
#GRANDVIEW      N/A         59  33  37  SW3     29.91S
#MABTON         N/A         59  40  49  W13     29.88
#MOXEE 2E       N/A         53   0  11  SW15    29.81S
#NACHES 2SW     N/A         53  36  52  W12     29.86S
#TERRACE HTS    N/A         57  37  47  SW1     29.84S
#TOPPENISH      N/A         56  37  49  W15     29.80
#WEST VALLEY    N/A         56  32  40  SW12    29.85S
#W YAKIMA       N/A         57  34  42  CALM    29.86F
#WHITE SWAN 5E  N/A         58  39  49  SW12    29.89
#WILEY CITY 3W  N/A         55  30  38  S7      29.83S
$$

WAZ028-230110-
LOWER COLUMBIA BASIN...WASHINGTON

CITY            SKY/WX      TMP DP  RH  WIND    PRES   REMARKS
HANFORD         MOCLDY      59  41  51  SW9     29.86
6HR MIN TEMP:   41; 6HR MAX TEMP:   60; 6HR PCP:  TRACE;

PASCO           CLOUDY      56  43  62  S6      29.91
6HR MIN TEMP:   45; 6HR MAX TEMP:   56;

PROSSER AWOS    N/A         59  36  42  SW15    29.92R
RICHLAND AWOS   CLOUDY      57  46  67  E3      29.90S
#BENTON CITY    N/A         57  45  64  SW3     29.80
#CONNELL 5N     N/A         51  45  80  SW7     29.91
#CONNELL 5NW    N/A         51  46  83  SW10    29.86
#ELTOPIA 6NW    N/A         52  47  83  CALM    28.87S
#KAHLOTUS       N/A         51  45  80  W12     29.91
#KENNEWICK 3S   N/A         55  46  72  SW7     29.91
#PATERSON       N/A         56  47  72  W5      29.89
#SAGEMOOR 2W    N/A         53  45  74  S2      29.78
#TOUCHET 2S     N/A         54  46  74  S12     29.90F
#WEST PASCO     N/A         57  47  69  S3      29.88S
$$

WAZ029-230110-
FOOTHILLS OF THE BLUES...WASHINGTON

CITY            SKY/WX      TMP DP  RH  WIND    PRES   REMARKS
WALLA WALLA AP  CLOUDY      51  46  83  S17     29.92
6HR MIN TEMP:   46; 6HR MAX TEMP:   53; 6HR PCP:  0.06;

#CLYDE 6NW      N/A         50  46  86  SW9     29.92
#DAYTON SCHOOL  N/A         52  38  59  SW7     29.93
#LOWDEN 2SE     N/A         54  48  80  S2      29.88S
#PLEASANT VIEW 1N/A         48  45  89  S12     29.95  WCI 43
#PRESCOTT       N/A         52  48  86  SW2     29.91
#WHITMAN COLLEGEN/A         51  44  77  SE5     29.98F
#WAITSBURG 5S   N/A         49  45  86  S10     30.02
#WALLA WALLA 5E N/A         50  44  80  S15     N/A
#WHITMAN MISSIONN/A         53  49  86  CALM    29.94S
$$

WAZ030-230110-
BLUE MOUNTAINS...WASHINGTON

CITY            SKY/WX      TMP DP  RH  WIND    PRES   REMARKS
#DIXIE 5SE      N/A         43  40  89  S14     29.84  WCI 36
$$

ORZ009-041-WAZ024-230110-
COLUMBIA RIVER GORGE

CITY            SKY/WX      TMP DP  RH  WIND    PRES   REMARKS
HOOD RIVER AP   CLOUDY      50  41  71  CALM    29.98
THE DALLES AP   PTCLDY      54  42  64  NW17G32 29.97
6HR MIN TEMP:   50; 6HR MAX TEMP:   58; 6HR PCP:  0.02;

#ARLINGTON AIRPON/A         54  39  57  W20     29.94R
#ARLINGTON HS   N/A         58  37  45  W7      29.83S
#CELILO DOT     N/A         54  34  47  SW8     N/A
#LYLE           N/A         51  42  71  W10G25  29.99S
#MOSIER 1S      N/A         50  36  58  CALM    29.97R
#MURDOCK        N/A         54  43  66  NW15G25 29.94S
#RUFUS DOT      N/A         54  39  57  NW16    N/A
#SMITHVILLE     N/A         52  43  71  N14     29.93R

$$

ORZ510-230110-
NORTH CENTRAL OREGON

CITY            SKY/WX      TMP DP  RH  WIND    PRES   REMARKS
#ANTELOPE       N/A         49  33  54  W7      29.84
#CHENOWITH 1W   N/A         44  41  89  W18     N/A    WCI 36
#COW CYN RST AREN/A         50  31  48  W14     N/A
#DUFUR          N/A         51  38  61  NW7     29.91
#DUFUR 9E       N/A         44  40  86  N9      30.03
#GRASS VALLEY 1SN/A         49  42  77  N8      30.07
#KENT DOT       N/A         51  26  37  N20     N/A
#MAUPIN SCHOOL  N/A         55  38  53  NW8     29.98S
#MORO SCHOOL    N/A         48  44  86  NW15    30.01R WCI 42
#SHANIKO 5WSW   N/A         49  23  36  N14     N/A    WCI 44
#SHANIKO 4NW    N/A         45  33  63  W13     29.90  WCI 39
#TYGH VALLEY 2NEN/A         54  39  57  N10     29.95R
#WAPANITIA AIRPON/A         51  38  61  NW9     29.98
#WASCO 5NE      N/A         51  40  66  N10     29.95S
$$

ORZ511-230110-
CENTRAL OREGON

CITY            SKY/WX      TMP DP  RH  WIND    PRES   REMARKS
BEND AIRPORT    MOCLDY      50  28  42  NW7     29.93R
MADRAS AIRPORT  PTCLDY      52  32  46  W13     29.96
PRINEVILLE AP   MOCLDY      48  32  54  W16     29.93S WCI 42
REDMOND AIRPORT CLOUDY      49  28  44  NW15    29.93  WCI 43
6HR MIN TEMP:   46; 6HR MAX TEMP:   54; 6HR PCP:  TRACE;

#ASHWOOD SCHOOL N/A         52  31  44  SW8     29.89
#BEND 1SW       N/A         45  33  63  W2      N/A
#BEND-AWBREY    N/A         51  32  48  W9      29.95R
#BEND-KIM LN    N/A         48  34  58  N7      29.91S
#CULVER         N/A         49  33  54  SW7     29.91S
#CULVER 8W      N/A         52  33  48  SW5     29.95S
#LAKE BILLY CHINN/A         47  N/A N/A W9      30.04R
#POWELL BUTTE   N/A         47  30  51  NW10    29.90R
#PRINEVILLE     N/A         51  32  48  W5      30.01
#PRINEVILLE 3N  N/A         49  32  52  W7      29.93S
#WARM SPRINGS   N/A         54  37  52  CALM    29.91S

$$


ORZ509-230110-
EAST SLOPES OF OREGON CASCADES

CITY            SKY/WX      TMP DP  RH  WIND    PRES   REMARKS
SISTERS AWOS    N/A         45  34  65  W20G36  29.92  WCI 37
#BLUE BOX PASS  N/A         34  N/A N/A NW3     N/A
#CAMP SHERMAN   N/A         44  34  68  SE1     30.06R
#LA PINE 4NW    N/A         44  30  58  N3      30.00S
#LAVA BUTTE DOT N/A         44  21  40  CALM    N/A
#SISTERS ODOT   N/A         45  N/A N/A SW8     N/A
#SISTERS 3N     N/A         44  29  55  N9      29.96S
#SUNRIVER       N/A         45  31  58  S3      29.97S
#TUMALO 3W      N/A         46  30  53  NW12    29.83S WCI 40
#WANOGA BUTTE D N/A         31  28  88  NW10    N/A

$$

ORZ044-230110-
LOWER COLUMBIA BASIN...OREGON

CITY            SKY/WX      TMP DP  RH  WIND    PRES   REMARKS
HERMISTON       PTCLDY      56  44  64  S8      29.90
6HR MIN TEMP:   45; 6HR MAX TEMP:   57; 6HR PCP:  0.01;

#BOARDMAN SCHOOLN/A         58  46  64  S6      29.90
#BOARDMAN 8SW   N/A         58  43  57  W17     29.92R
#ECHO 8SW       N/A         58  45  62  SW1     29.91F
#I-84 EX 198 DOTN/A         51  43  74  N8      N/A
#IONE SCHOOL    N/A         56  37  49  W13     29.94R
#UMATILLA       N/A         58  44  60  CALM    29.84S
$$

ORZ507-230110-
NORTHERN FOOTHILLS OF THE BLUES

CITY            SKY/WX      TMP DP  RH  WIND    PRES   REMARKS
PENDLETON AIRPT CLOUDY      48  43  83  S12     29.91  WCI 43
6HR MIN TEMP:   42; 6HR MAX TEMP:   50; 6HR PCP:  0.17;

#ADAMS 3WNW     N/A         49  44  83  SE1     29.94
#ATHENA         N/A         47  42  83  SE2     29.97
#CAYUSE         N/A         49  42  77  SE3     29.95
#HELIX SCHOOL   N/A         48  43  83  N10     29.94S
#HELIX 3N       N/A         46  42  86  S15     29.89  WCI 40
#HOLDMAN 5SE    N/A         49  45  86  S3      29.91S
#HOLDMAN 6E     N/A         47  44  89  SE9     29.75
#M-F FERNDALE   N/A         49  44  83  SE1     29.90S
#M-F GROVE ELEM N/A         50  40  68  S1      29.90
#M-FREEWATER 5SEN/A         49  42  77  SE3     29.92
#PENDLETON DNTN N/A         49  47  93  SE3     29.92
#PDT AQUATIC CTRN/A         50  45  83  CALM    29.84S
#PDT SUNRIDGE   N/A         49  44  83  SE3     29.93
#PILOT ROCK 1S  N/A         51  36  56  S6      29.92S
#PILOT ROCK     N/A         52  43  71  SW1     29.93S
#TUTUILLA       N/A         49  43  80  S1      29.95
#UMAPINE 2E     N/A         51  46  83  S5      29.89S
#WESTON SCHOOL  N/A         46  39  76  S3      29.93S

$$

ORZ508-230110-
SOUTHERN FOOTHILLS OF THE BLUES

CITY            SKY/WX      TMP DP  RH  WIND    PRES   REMARKS
LEXINGTON       PTCLDY      57  43  59  W15     29.94R
#AJAX           N/A         48  34  58  W8      30.07
#CONDON SCHOOL  N/A         50  35  56  W10     29.87R
#CONDON 5W      N/A         47  31  53  W18G25  29.88R WCI 40
#FOSSIL SCHOOL  N/A         52  33  48  W7      29.86R
#HEPPNER EOC    N/A         53  40  61  W7      29.86
#HEPPNER 4NE    N/A         49  39  68  W8      29.93
#LEXINGTON 2SE  N/A         56  43  62  NW7     29.86R
#OLEX 4N        N/A         52  40  63  W22G35  29.91
#RUGGS 5NE      N/A         48  36  63  W10     30.07S
#RUGGS 2SW      N/A         49  37  63  W10     29.94

$$

ORZ502-503-230110-
BLUE MOUNTAINS

CITY            SKY/WX      TMP DP  RH  WIND    PRES   REMARKS
MEACHAM         CLOUDY      38  34  85  CALM    29.91
6HR MIN TEMP:   37; 6HR MAX TEMP:   48; 6HR PCP:  0.15;

#BATTLE MTN DOT N/A         41  29  62  SE2     N/A
#GREENHORN 9SW  N/A         33  N/A N/A W1      26.13
#HEPPNER 15SE   N/A         40  37  89  CALM    29.94R
#LADD CYN SMT   N/A         41  37  86  W12     N/A    WCI 34
#LADD CREEK ODOTN/A         42  36  79  CALM    N/A
#LONG CREEK HS  N/A         41  39  93  CALM    N/A
#N POWDER DOT   N/A         47  36  65  NW25    N/A    WCI 39
#PIKES PEAK     N/A         39  35  85  W15     27.99S WCI 31
#TOLLGATE       N/A         31  30  96  S2      29.77
#TROY SCHOOL    N/A         48  45  89  CALM    29.75S
#UKIAH          N/A         48  39  71  CALM    29.87S
#WESTON 4E      N/A         39  37  92  S3      29.92S
$$

ORZ505-230110-
JOHN DAY BASIN

CITY            SKY/WX      TMP DP  RH  WIND    PRES   REMARKS
JOHN DAY        MOCLDY      46  39  76  W5      29.92S
#JOHN DAY KJDY  N/A         48  N/A N/A CALM    29.06S
#ANTELOPE 9ESE  N/A         58  33  39  W7      N/A
#DAYVILLE SCHOOLN/A         49  38  66  CALM    29.89S
#MITCHELL       N/A         49  41  74  NW1     30.08S
#MITCHELL 8NW   N/A         50  33  52  CALM    29.76S
#MONUMENT HS    N/A         53  39  59  CALM    29.89
#MT. VERNON 5SE N/A         42  38  86  W5      29.86S
#SPRAY SCHOOL   N/A         56  N/A N/A CALM    N/A
#WINLOCK        N/A         51  41  68  W1      29.88S
$$

ORZ506-230110-
OCHOCO AND JOHN DAY HIGHLANDS

CITY            SKY/WX      TMP DP  RH  WIND    PRES   REMARKS
#HORSE RIDGE DO N/A         45  27  49  W10     N/A
#PAULINA SCHOOL N/A         51  25  36  W8      N/A
#PINE MTN OBS   N/A         36  27  69  W3      N/A
#PRAIRIE CITY   N/A         46  40  79  CALM    30.06S
#SENECA         N/A         39  N/A N/A N12     N/A    WCI 32
#SENECA 9NW     N/A         40  34  79  SW1     29.92
$$

ORZ049-230110-
GRANDE RONDE VALLEY

CITY            SKY/WX      TMP DP  RH  WIND    PRES   REMARKS
LA GRANDE       CLOUDY      41  36  82  N8      29.92F
#COVE           N/A         42  41  96  W6      29.98
#COVE SCHOOL    N/A         42  39  89  W5      29.96
#COVE 6NW       N/A         43  39  86  W7      29.95
#ELGIN 3N       N/A         42  33  70  CALM    29.91S
#ELGIN 1E       N/A         43  37  79  CALM    N/A
#IMBLER SCHOOL  N/A         42  36  79  CALM    29.90
#ISLAND CITY 4N N/A         51  42  71  SW5     30.02
#UNION 1S       N/A         42  38  86  NW3     29.94
$$

ORZ050-230110-
WALLOWA COUNTY

CITY            SKY/WX      TMP DP  RH  WIND    PRES   REMARKS
JOSEPH AIRPORT  RAIN        43  37  79  CALM    29.88
#IMNAHA SCHOOL  N/A         57  39  51  N2      29.86
#IMNAHA 10S     N/A         55  39  55  NW3     29.85S
#JOSEPH 3N      N/A         42  35  76  NW9     29.92
#JOSEPH 3W      N/A         40  38  92  CALM    29.74S
#LOSTINE        N/A         44  38  79  N6      29.71
#LOSTINE 3SE    N/A         43  38  82  N7      29.92S
#MT HOWARD 8000 N/A         30  25  81  SW5     29.83S
#PROMISE 1S     N/A         41  39  93  CALM    30.03R
#WALLOWA SCHOOL N/A         43  41  93  CALM    29.87



$$



USA.gov is the U.S. government's official web portal to all federal, state and local government web resources and services.